sat.trackr.live / text

‹ back to catalog

STARLINK-36378

NORAD 68025 · 2026-040L

PAYLOAD ACTIVE UNKNOWN

§ Identity

Operator
Country
US
Launch date
2026-03-01
Launch site
AFWTR
Launch vehicle
Mass (kg)
RCS (m²)

Purposes: comms

External: N2YO · Heavens-Above · Gunter

§ Orbital elements

Epoch: 2026-09-20T02:02:53.619648Z

Period
93.91 min
Inclination
97.2842°
Eccentricity
0.0001703
Mean motion
15.33453393 rev/d
Perigee alt
464.4 km
Apogee alt
466.7 km
Semi-major
6,843.7 km
B*
5.9037e-4
RAAN
210.4188°
Arg perigee
95.5252°
Mean anomaly
264.6185°
Rev number
3,125

§ Raw data

STARLINK-363781 68025U 26040L   26263.08534282  .00019038  00000+0  59037-3 0  99912 68025  97.2842 210.4188 0001703  95.5252 264.6185 15.33453393 31250

JSON: /api/v1/satellites/68025 · /tle

For live sub-satellite position, see the globe view (requires WebGL).

§ Visibility from observer

Set your observer location to see the next 7 days of passes ≥ 10°. The values pass through the URL so the page stays shareable.

No JS? Fill the form by hand. The geolocation button needs JavaScript.